Hourly Data Report for February 11, 2021

TORONTO CITY
ONTARIO
Current Station Operator: ECCC - MSC

43°40'00.000" N
79°24'00.000" W
112.50 m
6158355
71508
XTO

Download Data

Hourly Data (February 2021)
Hourly Data Report for February 11, 2021
TIME
LST
Temp Definition
°C
Dew Point Definition
°C
Rel Hum Definition
%
Precip. Amount Definition
mm

Wind Dir Definition
10's deg

Wind Spd Definition
km/h
Visibility Definition
km
Stn Press Definition
kPa
Hmdx Definition


Wind Chill Definition


Weather Definition


00:00 -6.5 -13.3 59 0.0       101.12     LegendNANA
01:00 -6.4 -12.6 61 0.0       101.18     LegendNANA
02:00 -6.9 -13.5 60 0.0       101.17     LegendNANA
03:00 -7.0 -13.3 60 0.0       101.16     LegendNANA
04:00 -7.1 -13.1 62 0.0       101.18     LegendNANA
05:00 -7.2 -12.7 65 0.0       101.22     LegendNANA
06:00 -7.4 -12.6 67 0.0       101.19     LegendNANA
07:00 -7.2 -11.9 69 0.0       101.25     LegendNANA
08:00 -7.5 -12.1 70 0.0       101.33     LegendNANA
09:00 -6.5 -12.4 63 0.0       101.40     LegendNANA
10:00 -4.9 -14.1 48 0.0       101.43     LegendNANA
11:00 -4.3 -15.4 42 0.0       101.49     LegendNANA
12:00 -3.8 -16.2 38 0.0       101.49     LegendNANA
13:00 -3.3 -15.8 37 0.0       101.45     LegendNANA
14:00 -4.3 -16.1 39 0.0       101.47     LegendNANA
15:00 -4.5 -15.1 43 0.0       101.45     LegendNANA
16:00 -4.8 -15.8 42 0.0       101.44     LegendNANA
17:00 -5.5 -15.9 44 0.0       101.49     LegendNANA
18:00 -6.0 -15.8 46 0.0       101.52     LegendNANA
19:00 -6.7 -16.2 47 0.0       101.57     LegendNANA
20:00 -7.6 -15.1 55 0.0       101.61     LegendNANA
21:00 -8.1 -15.4 56 0.0       101.60     LegendNANA
22:00 -8.4 -15.7 56 0.0       101.60     LegendNANA
23:00 -9.0 -16.9 53 0.0       101.60     LegendNANA

Notes on Data Quality.

Legend

  • E = Estimated
  • M = Missing
  • NA = Not Available*
  • [empty] = Indicates an unobserved value
Date modified: